[[{"header":{"parameterUnit":"m.s-1","parameterCategory":1,"la1":30.2991,"la2":30.254,"lo1":-89.0895,"lo2":-89.0444,"dy":0.0017,"dx":0.0017,"nx":28,"ny":28,"refTime":"2024-05-25T21:00:00:Z","depth":0,"parameterNumber":2,"parameterNumberName":"U-component_of_WINDS"},"data":[0,0,0,0,0,0,0,0,0,0,0,0,0,0,0,0,0,0,0,0,0,0,0,0,0,0,0,0,0,0,0,0,0,0,0,0,0,0,0,0,0,0,0,0,0,0,0,0,0,0,0,0,0,0,0,0,0,0,0.4896,0.4896,0,0.4964,0.4965,0.4965,0.4982,0.4982,0.4982,0.4981,0.5051,0.5053,0.5055,0,0,0,0,0,0,0,0,0,0,0,0,0,0.4779,0.4781,0.4896,0.4897,0.4897,0.4964,0.4965,0.4966,0.4983,0.4982,0.4981,0.4981,0.505,0.5053,0.5056,0,0,0,0,0,0,0,0,0,0,0,0,0,0.4837,0.4782,0.4896,0.4914,0.4916,0.4964,0.4965,0.4966,0.4983,0.4982,0.4981,0.4981,0.5049,0.5053,0.5056,0.509,0,0,0.5066,0.5068,0,0,0,0,0,0,0,0,0.4833,0.4841,0.491,0.4913,0.4915,0.4964,0.4949,0.5008,0.4983,0.4957,0.4981,0.498,0.5023,0.5028,0.5042,0.5093,0.5096,0.5067,0.5069,0.507,0.5071,0,0,0,0,0,0,0,0.4829,0.4838,0.4923,0.4911,0.4914,0.4918,0.4926,0.496,0.4993,0.496,0.4961,0.4969,0.5024,0.5039,0.5044,0.5097,0.5067,0.507,0.5072,0.5073,0.5178,0.5179,0,0,0,0,0,0,0.4822,0.4835,0.4921,0.4925,0.4872,0.4921,0.4929,0.4949,0.4993,0.4999,0.4969,0.4969,0.5034,0.504,0.5047,0.5088,0.507,0.5073,0.5075,0.5177,0.5178,0.5179,0,0,0,0,0,0,0.482,0.483,0.4918,0.488,0.4892,0.4924,0.4946,0.4951,0.4966,0.5,0.5006,0.4979,0.5033,0.5042,0.5079,0.5091,0.5075,0.5078,0.5176,0.5178,0.5179,0.5173,0,0,0,0,0,0,0.4816,0.4829,0.4842,0.488,0.4893,0.4949,0.4946,0.4953,0.4972,0.4972,0.501,0.5016,0.5033,0.5074,0.5082,0.5095,0.5081,0.5175,0.5177,0.5178,0.5172,0.5173,0.5175,0,0,0,0,0,0.4812,0.4838,0.4843,0.4853,0.4911,0.495,0.4957,0.4977,0.4973,0.4986,0.5008,0.5015,0.5088,0.5077,0.5087,0.5101,0.5175,0.5176,0.5178,0.5171,0.5173,0.5175,0,0,0,0,0,0,0.4801,0.4844,0.4849,0.4889,0.4916,0.4953,0.4971,0.4978,0.5007,0.5006,0.5029,0.5038,0.5073,0.5091,0.5078,0.5136,0.5131,0.5135,0.5123,0.5125,0.5126,0.5121,0.5084,0,0,0,0,0,0.4804,0.4832,0.4867,0.4898,0.4911,0.4939,0.4956,0.4969,0.4997,0.5009,0.5033,0.506,0.5089,0.5108,0.5137,0.5174,0.5182,0.5189,0.519,0.5191,0.5194,0.5214,0.5217,0.5185,0.5184,0.5184,0,0,0.4809,0.4835,0.4852,0.4897,0.4919,0.4947,0.4948,0.4978,0.4999,0.5013,0.5049,0.5068,0.51,0.5137,0.5154,0.5153,0.5205,0.5194,0.5194,0.5197,0.5216,0.5219,0.5222,0.5186,0.5185,0.5185,0,0,0.4832,0.4855,0.4883,0.4905,0.4939,0.4956,0.4963,0.4998,0.5011,0.5048,0.5059,0.5083,0.5134,0.5155,0.5173,0.5203,0.521,0.5211,0.5219,0.5238,0.524,0.5243,0.5252,0.5255,0.5214,0.5214,0.5214,0,0.4834,0.4877,0.4897,0.4926,0.4945,0.4959,0.4987,0.5007,0.5048,0.506,0.5058,0.512,0.5143,0.5184,0.5191,0.5206,0.5213,0.5207,0.5238,0.5241,0.5243,0.5253,0.5256,0.5214,0.5214,0.5214,0.5214,0,0.4877,0.4906,0.4925,0.4964,0.4985,0.5013,0.5037,0.5056,0.5066,0.5083,0.5119,0.5147,0.5181,0.5191,0.5202,0.5234,0.5232,0.5234,0.523,0.5246,0.5255,0.5259,0.5214,0.5214,0.5214,0.5214,0,0,0.4897,0.4945,0.4951,0.4968,0.5005,0.5028,0.5056,0.5089,0.5104,0.5132,0.5156,0.5197,0.5198,0.5218,0.5231,0.5248,0.5268,0.5247,0.5249,0.525,0.5303,0.5302,0.5305,0.5273,0.5274,0.5274,0.5301,0,0.4924,0.4975,0.4993,0.5035,0.5062,0.5075,0.5099,0.5124,0.5141,0.5165,0.5184,0.5212,0.5213,0.5225,0.5242,0.5262,0.5279,0.526,0.5295,0.5295,0.5286,0.531,0.5309,0.5333,0.5304,0.5305,0.5305,0,0.4963,0.499,0.5035,0.5067,0.5079,0.5101,0.5131,0.5155,0.5183,0.5194,0.5215,0.5227,0.5256,0.525,0.529,0.5277,0.5292,0.5303,0.5305,0.5309,0.5301,0.5314,0.5341,0.5344,0.5311,0.5311,0.5311,0,0.4971,0.5019,0.5052,0.5066,0.5105,0.512,0.5136,0.5164,0.5182,0.5208,0.522,0.525,0.5266,0.5289,0.5307,0.5301,0.5345,0.5341,0.5355,0.5354,0.5363,0.5362,0.5392,0.5374,0.5373,0.5373,0.5373,0,0.4999,0.5026,0.5056,0.5076,0.5105,0.5125,0.5154,0.5172,0.5196,0.5219,0.5232,0.5253,0.5277,0.5301,0.5316,0.5346,0.5353,0.5362,0.5366,0.5361,0.536,0.5371,0.537,0.5374,0.5374,0.5374,0.5374,0,0.5014,0.5035,0.5071,0.5105,0.5114,0.5134,0.5162,0.5182,0.5198,0.5227,0.5235,0.5262,0.529,0.5311,0.5349,0.5359,0.5391,0.5395,0.5381,0.5383,0.5395,0.5393,0.5432,0.5438,0.5416,0.5416,0.5416,0,0.5031,0.5051,0.5086,0.5103,0.5119,0.5146,0.5164,0.5184,0.5202,0.5234,0.525,0.5279,0.5304,0.5349,0.5372,0.54,0.5404,0.5416,0.5409,0.5403,0.5404,0.5402,0.5404,0.5417,0.5417,0.5417,0.5417,0,0.5057,0.5066,0.5092,0.5121,0.5142,0.5166,0.519,0.5203,0.5227,0.5246,0.5276,0.5295,0.5333,0.5362,0.5392,0.5409,0.5417,0.5419,0.5424,0.5419,0.541,0.5414,0.5383,0.5418,0.5418,0.5418,0.5418,0.5418,0.5073,0.5091,0.5118,0.5146,0.5166,0.5188,0.5208,0.5226,0.5251,0.5283,0.5294,0.5324,0.535,0.5391,0.5408,0.5432,0.5431,0.5438,0.544,0.5441,0.544,0.5406,0.5437,0.5437,0.5437,0.5437,0.5437,0,0.5099,0.5117,0.5143,0.5176,0.5197,0.5203,0.5229,0.5247,0.5273,0.5297,0.5321,0.5354,0.5381,0.5405,0.5434,0.5448,0.5452,0.5455,0.5454,0.5457,0.5439,0.5432,0.5451,0.5451,0.5451,0.5451,0.5451,0.5451,0.5116,0.5147,0.5159,0.5199,0.5217,0.5247,0.5261,0.5281,0.53,0.5336,0.5359,0.5374,0.5398,0.5428,0.5453,0.5459,0.5469,0.547,0.5477,0.546,0.5459,0.5457,0.5451,0.5472,0.5473,0.5493,0.5494,0.5494]},{"header":{"parameterUnit":"m.s-1","parameterCategory":1,"la1":30.2991,"la2":30.254,"lo1":-89.0895,"lo2":-89.0444,"dy":0.0017,"dx":0.0017,"nx":28,"ny":28,"refTime":"2024-05-25T21:00:00:Z","depth":0,"parameterNumber":3,"parameterNumberName":"V-component_of_WINDS"},"data":[0,0,0,0,0,0,0,0,0,0,0,0,0,0,0,0,0,0,0,0,0,0,0,0,0,0,0,0,0,0,0,0,0,0,0,0,0,0,0,0,0,0,0,0,0,0,0,0,0,0,0,0,0,0,0,0,0,0,5.4029,5.4029,0,5.4076,5.4076,5.4077,5.4008,5.4005,5.4003,5.4,5.4044,5.4048,5.4051,0,0,0,0,0,0,0,0,0,0,0,0,0,5.3874,5.3878,5.4029,5.4029,5.403,5.4075,5.4076,5.4077,5.4008,5.4005,5.4002,5.3999,5.4043,5.4047,5.4051,0,0,0,0,0,0,0,0,0,0,0,0,0,5.3933,5.3879,5.4029,5.4001,5.3999,5.4075,5.4076,5.4077,5.4009,5.4005,5.4001,5.3998,5.4042,5.4047,5.4052,5.4156,0,0,5.4067,5.407,0,0,0,0,0,0,0,0,5.393,5.3939,5.4005,5.4003,5.4001,5.4032,5.4038,5.4103,5.401,5.4005,5.4,5.3996,5.4043,5.4048,5.4064,5.4158,5.416,5.4068,5.4071,5.4073,5.4075,0,0,0,0,0,0,0,5.3926,5.3937,5.4047,5.4006,5.4004,5.3985,5.3989,5.405,5.4043,5.4005,5.4,5.4007,5.4041,5.4059,5.4065,5.416,5.4068,5.4072,5.4075,5.4077,5.434,5.4343,0,0,0,0,0,0,5.3926,5.3934,5.4045,5.4048,5.3956,5.3991,5.3995,5.4026,5.4043,5.4042,5.401,5.4003,5.4053,5.4059,5.4066,5.4188,5.4073,5.4078,5.4081,5.4336,5.434,5.4345,0,0,0,0,0,0,5.3923,5.3937,5.4044,5.399,5.4002,5.3997,5.4032,5.4029,5.4047,5.4046,5.4044,5.403,5.405,5.4059,5.4134,5.4188,5.408,5.4085,5.4331,5.4337,5.4342,5.4433,0,0,0,0,0,0,5.3919,5.3936,5.3977,5.3991,5.4005,5.4113,5.4035,5.4032,5.4056,5.4048,5.4065,5.4064,5.4048,5.4127,5.4139,5.4193,5.4089,5.4326,5.4334,5.4341,5.4425,5.4441,5.4455,0,0,0,0,0,5.3914,5.4,5.3979,5.3993,5.4056,5.4116,5.4124,5.4104,5.4061,5.4101,5.41,5.4063,5.4181,5.4135,5.4148,5.4205,5.4323,5.4332,5.434,5.4418,5.4438,5.4455,0,0,0,0,0,0,5.399,5.4001,5.3978,5.4072,5.4094,5.4104,5.4154,5.4126,5.4159,5.415,5.4123,5.4128,5.4208,5.4214,5.4163,5.4306,5.4244,5.4256,5.4299,5.4318,5.4332,5.4329,5.4093,0,0,0,0,0,5.4018,5.4068,5.4074,5.4156,5.4168,5.4159,5.4185,5.4168,5.4188,5.4197,5.4202,5.4222,5.4263,5.4291,5.4329,5.4426,5.4427,5.4471,5.4486,5.4498,5.4509,5.4559,5.4579,5.4373,5.4373,5.4373,0,0,5.4076,5.4088,5.4121,5.4171,5.4186,5.4236,5.4167,5.4223,5.4259,5.4205,5.4276,5.4281,5.4301,5.4387,5.4426,5.4395,5.4566,5.451,5.4519,5.4523,5.457,5.459,5.4607,5.4379,5.4378,5.4377,0,0,5.4208,5.4222,5.4292,5.4308,5.4332,5.4325,5.4342,5.4357,5.4358,5.4429,5.4389,5.4431,5.4503,5.4519,5.4536,5.4673,5.464,5.4686,5.4764,5.4813,5.483,5.4844,5.4892,5.4909,5.4696,5.4697,5.4697,0,5.4276,5.4352,5.4331,5.439,5.4412,5.4366,5.4435,5.4452,5.4486,5.4502,5.4467,5.4556,5.4566,5.4655,5.4689,5.4705,5.4722,5.4684,5.4829,5.4843,5.4856,5.4901,5.492,5.4702,5.4701,5.4701,5.47,0,5.4434,5.4487,5.454,5.4576,5.4604,5.4668,5.4655,5.4686,5.4667,5.4663,5.4736,5.4747,5.4786,5.4806,5.4787,5.4892,5.4872,5.4834,5.4771,5.4882,5.4923,5.4941,5.471,5.4708,5.4706,5.4705,0,0,5.4616,5.4639,5.4659,5.4674,5.4696,5.4735,5.4796,5.4835,5.4862,5.4887,5.4936,5.4998,5.4962,5.4982,5.4965,5.5008,5.5114,5.4964,5.4964,5.4991,5.5229,5.5258,5.5278,5.5093,5.5096,5.5098,5.5227,0,5.4746,5.4853,5.4835,5.4938,5.4985,5.4942,5.4994,5.5013,5.5011,5.505,5.5047,5.5091,5.5042,5.5053,5.5094,5.5093,5.5162,5.5083,5.5137,5.5139,5.5133,5.53,5.5331,5.5452,5.5244,5.5247,5.5249,0,5.4913,5.4945,5.5053,5.5067,5.5086,5.5134,5.5168,5.5206,5.5225,5.5221,5.5243,5.5217,5.5276,5.5213,5.5292,5.5239,5.526,5.5262,5.5267,5.527,5.52,5.5308,5.549,5.5509,5.5274,5.5272,5.527,0,5.5033,5.5103,5.5177,5.5191,5.521,5.5244,5.5253,5.5269,5.5293,5.5322,5.5338,5.5373,5.5392,5.5419,5.5403,5.5359,5.5485,5.5421,5.5482,5.5482,5.551,5.5508,5.5698,5.5524,5.5524,5.5524,5.5523,0,5.5181,5.5248,5.5231,5.5276,5.535,5.5328,5.5401,5.5405,5.5419,5.5463,5.5427,5.5468,5.5444,5.5483,5.547,5.5538,5.5547,5.5544,5.5539,5.5547,5.5547,5.556,5.5551,5.5529,5.5527,5.5527,5.5526,0,5.5328,5.532,5.5396,5.5408,5.5412,5.5466,5.5474,5.5515,5.5511,5.5567,5.5578,5.5571,5.5615,5.5601,5.5648,5.564,5.5725,5.571,5.5719,5.5715,5.5777,5.5771,5.598,5.6006,5.5817,5.5819,5.582,0,5.5422,5.5473,5.549,5.5518,5.553,5.5574,5.5599,5.5579,5.5606,5.5632,5.5669,5.571,5.5742,5.5814,5.5812,5.5848,5.5833,5.5904,5.5838,5.5844,5.5833,5.583,5.5835,5.5917,5.5919,5.5921,5.5922,0,5.5591,5.5584,5.5622,5.5659,5.569,5.5718,5.5742,5.5766,5.5747,5.5779,5.5824,5.5849,5.5897,5.5938,5.597,5.5977,5.5947,5.5943,5.5959,5.5967,5.597,5.5968,5.5754,5.5938,5.5937,5.5935,5.5935,5.5934,5.5714,5.5757,5.5776,5.5819,5.5835,5.5858,5.5897,5.5898,5.5936,5.5975,5.596,5.6012,5.6028,5.6068,5.608,5.6119,5.6091,5.6115,5.612,5.6126,5.6134,5.5964,5.6124,5.6124,5.6123,5.6123,5.6123,0,5.588,5.589,5.593,5.5965,5.5999,5.5968,5.5993,5.6023,5.6069,5.6088,5.612,5.6171,5.621,5.6211,5.6247,5.6278,5.6265,5.6288,5.6286,5.6288,5.6157,5.6139,5.6299,5.6299,5.6299,5.6298,5.6298,5.6298,5.597,5.6041,5.6036,5.6114,5.6123,5.6174,5.6191,5.6212,5.6226,5.6286,5.6319,5.6319,5.633,5.6367,5.6401,5.64,5.6414,5.6443,5.6437,5.6314,5.6297,5.628,5.6264,5.6447,5.6447,5.6565,5.6566,5.6566]}]]